Location: Béaulencourt
(50.0796°N, 2.8795°E)
Time: 00:38:09
(UTC+00:00)

Cosmos 371 Rocket - Pass Details

Date: 20 January 2026
Orbit: 676 x 688 km, 74.0° (Epoch: 18 February)

Event Time Altitude Azimuth Distance (km) Brightness Sun altitude
Rises 06:14:25 0° 199° (SSW) 3,040 6.6 -13.0°
Reaches altitude 10° 06:16:43 10° 199° (SSW) 2,127 5.8 -12.6°
Maximum altitude 06:21:30 83° 112° (ESE) 696 3.4 -11.9°
Drops below altitude 10° 06:26:19 10° 25° (NNE) 2,135 5.9 -11.1°
Sets 06:28:38 0° 25° (NNE) 3,053 6.7 -10.8°
